Regional Weather Roundup
Issued by NWS

Home | Current Version | Previous Version | Graphics & Text | Print | Product List | Glossary On
Versions: 1 2 3 4 5 6 7 8 9 10 11 12 13 14 15 16 17 18 19 20 21 22 23 24 25 26 27 28 29 30 31 32 33 34 35 36 37 38 39 40 41 42 43 44 45 46 47 48 49 50
000
ASUS43 KOAX 272002
RWRNE

WEATHER ROUNDUP FOR NEBRASKA
NATIONAL WEATHER SERVICE OMAHA NE
200 PM CST SAT DEC 27 2014

NOTES: SATELLITE DATA IS BEING USED TO AUGMENT CLOUD COVER ABOVE
       12000 FEET.
       "FAIR" INDICATES FEW OR NO CLOUDS BELOW 12,000 FEET WITH NO
       SIGNIFICANT WEATHER AND/OR OBSTRUCTIONS TO VISIBILITY.

  * THESE STATIONS DO NOT REPORT WEATHER SUCH AS RAIN...SNOW OR FOG.

NEZ001>004-019>022-054>056-272100-
NEBRASKA PANHANDLE

CITY           SKY/WX    TMP DP  RH WIND       PRES   REMARKS
SCOTTSBLUFF    SUNNY     17   9  70 NW7       30.11F WCI   8
ALLIANCE       SUNNY     19  10  68 W13       30.08F WCI   6
CHADRON        SUNNY     23  13  65 SW9       30.09F WCI  13
KIMBALL        SUNNY     21  11  64 W10       30.06F WCI  10
SIDNEY         SUNNY     22   8  55 W13       30.11F WCI  10
$$

NEZ057>060-069>072-079>082-272100-
SOUTHWEST NEBRASKA

CITY           SKY/WX    TMP DP  RH WIND       PRES   REMARKS
NORTH PLATTE   SUNNY     20  13  74 W12       30.17F WCI   8
IMPERIAL       SUNNY     24  12  60 NW9       30.16F WCI  14
MCCOOK         SUNNY     24  15  68 W10       30.20F WCI  14
$$

NEZ005>010-023>029-035>040-094-272100-
NORTH CENTRAL NEBRASKA

CITY           SKY/WX    TMP DP  RH WIND       PRES   REMARKS
VALENTINE      SUNNY     22  12  65 W9        30.12F WCI  12
AINSWORTH      SUNNY     23  15  71 W10       30.12S WCI  12
BROKEN BOW     SUNNY     23  15  71 W8        30.16F WCI  14
ORD            SUNNY     25  15  66 W6        30.17F WCI  18
$$

NEZ041-046>049-061>064-073>077-083>087-272100-
SOUTH CENTRAL NEBRASKA

CITY           SKY/WX    TMP DP  RH WIND       PRES   REMARKS
GRAND ISLAND   SUNNY     25  16  68 W10       30.22F WCI  15
HASTINGS       SUNNY     24  15  68 W10       30.20F WCI  14
HEBRON         SUNNY     29  19  67 NW8G16    30.24F WCI  21
KEARNEY *      SUNNY     25  16  68 W12       30.20F WCI  14
$$

NEZ011>018-030>034-042>045-272100-
NORTHEAST NEBRASKA

CITY           SKY/WX    TMP DP  RH WIND       PRES   REMARKS
NORFOLK        SUNNY     21  13  71 W10       30.18F WCI  10
BLAIR          MOSUNNY   24  16  70 W8        30.20F WCI  16
COLUMBUS *     SUNNY     21  10  63 NW9       30.22F WCI  11
TEKAMAH        SUNNY     24  15  68 W10       30.23F WCI  14
$$

NEZ050>053-065>068-078-088>093-272100-
SOUTHEAST NEBRASKA

CITY           SKY/WX    TMP DP  RH WIND       PRES   REMARKS
LINCOLN        SUNNY     27  17  66 NW12      30.25F WCI  17
OMAHA EPPLEY   MOSUNNY   27  18  69 NW12      30.24S WCI  17
FALLS CITY     MOSUNNY   29  19  66 NW14      30.23F WCI  18
$$

NEZ044-045-051>053-067-272100-
OMAHA AREA

CITY           SKY/WX    TMP DP  RH WIND       PRES   REMARKS
OMAHA EPPLEY   MOSUNNY   27  18  69 NW12      30.24S WCI  17
BLAIR          MOSUNNY   24  16  70 W8        30.20F WCI  16
OFFUTT AFB     SUNNY     28  19  67 W8        30.21F WCI  20
$$


USA.gov is the U.S. government's official web portal to all federal, state and local government web resources and services.